TimeCST,TemperatureF,Dew PointF,Humidity,Sea Level PressureIn,VisibilityMPH,Wind Direction,Wind SpeedMPH,Gust SpeedMPH,PrecipitationIn,Events,Conditions,WindDirDegrees,DateUTC
12:52 AM,12.9,5.0,71,30.32,10.0,Variable,5.8,-,N/A,,Overcast,0,2013-12-11 06:52:00
1:52 AM,12.9,7.0,77,30.32,9.0,SW,5.8,-,N/A,,Overcast,230,2013-12-11 07:52:00
2:34 AM,12.2,8.6,85,30.26,2.5,SW,3.5,-,0.00,Snow,Light Snow,230,2013-12-11 08:34:00
2:52 AM,12.9,10.0,88,30.33,1.5,WSW,3.5,-,0.00,Snow,Light Snow,250,2013-12-11 08:52:00
3:10 AM,12.2,10.4,92,30.25,2.0,Variable,3.5,-,0.00,Snow,Light Snow,0,2013-12-11 09:10:00
3:22 AM,12.2,10.4,92,30.25,3.0,West,3.5,-,0.00,Snow,Light Snow,270,2013-12-11 09:22:00
3:52 AM,12.9,10.0,88,30.31,3.0,Calm,Calm,-,0.00,Snow,Light Snow,0,2013-12-11 09:52:00
4:14 AM,14.0,10.4,86,30.24,2.0,Calm,Calm,-,0.00,Snow,Light Snow,0,2013-12-11 10:14:00
4:22 AM,12.2,10.4,92,30.24,1.8,Calm,Calm,-,0.00,Snow,Light Snow,0,2013-12-11 10:22:00
4:30 AM,14.0,10.4,86,30.24,2.5,Calm,Calm,-,0.00,Snow,Light Snow,0,2013-12-11 10:30:00
4:52 AM,14.0,10.9,88,30.32,2.0,Calm,Calm,-,0.00,Snow,Light Snow,0,2013-12-11 10:52:00
4:54 AM,14.0,10.4,86,30.25,1.8,Calm,Calm,-,0.00,Snow,Light Snow,0,2013-12-11 10:54:00
5:44 AM,14.0,10.4,86,30.27,2.0,WSW,3.5,-,0.00,Snow,Light Snow,240,2013-12-11 11:44:00
5:52 AM,14.0,10.9,88,30.35,2.0,Calm,Calm,-,0.00,Snow,Light Snow,0,2013-12-11 11:52:00
5:59 AM,14.0,10.4,86,30.28,2.0,Calm,Calm,-,0.00,Snow,Light Snow,0,2013-12-11 11:59:00
6:52 AM,14.0,12.0,92,30.38,2.0,WSW,3.5,-,0.00,Snow,Light Snow,240,2013-12-11 12:52:00
7:30 AM,14.0,10.4,86,30.31,5.0,Calm,Calm,-,0.00,,Overcast,0,2013-12-11 13:30:00
7:52 AM,14.0,10.9,88,30.39,3.0,West,4.6,-,0.00,,Overcast,280,2013-12-11 13:52:00
8:23 AM,15.8,10.4,79,30.33,2.0,West,4.6,-,0.00,Snow,Light Snow,280,2013-12-11 14:23:00
8:52 AM,16.0,10.9,81,30.41,2.5,West,5.8,-,0.00,Snow,Light Snow,280,2013-12-11 14:52:00
9:06 AM,15.8,10.4,79,30.34,4.0,West,6.9,-,0.00,,Haze,280,2013-12-11 15:06:00
9:52 AM,17.1,9.0,71,30.43,3.0,Variable,6.9,-,0.00,,Haze,0,2013-12-11 15:52:00
10:19 AM,15.8,8.6,73,30.37,2.5,NW,8.1,-,0.00,Snow,Light Snow,310,2013-12-11 16:19:00
10:49 AM,15.8,6.8,68,30.37,5.0,NNW,12.7,16.1,0.00,Snow,Light Snow,330,2013-12-11 16:49:00
10:52 AM,15.1,7.0,70,30.45,6.0,NW,10.4,16.1,0.00,,Haze,320,2013-12-11 16:52:00
11:52 AM,15.1,3.9,61,30.44,10.0,NW,10.4,20.7,N/A,,Mostly Cloudy,310,2013-12-11 17:52:00
12:52 PM,14.0,-0.0,54,30.46,10.0,WNW,11.5,19.6,N/A,,Clear,300,2013-12-11 18:52:00
1:52 PM,12.0,-0.9,56,30.47,10.0,WNW,6.9,17.3,N/A,,Clear,300,2013-12-11 19:52:00
2:52 PM,10.9,-2.9,54,30.50,10.0,WNW,5.8,-,N/A,,Clear,290,2013-12-11 20:52:00
3:52 PM,8.1,-5.1,55,30.52,10.0,Variable,4.6,-,N/A,,Clear,0,2013-12-11 21:52:00
4:52 PM,5.0,-8.0,55,30.55,10.0,WNW,4.6,-,N/A,,Clear,300,2013-12-11 22:52:00
5:52 PM,1.0,-8.0,66,30.57,10.0,WSW,3.5,-,N/A,,Clear,250,2013-12-11 23:52:00
6:52 PM,1.9,-8.0,63,30.59,10.0,Calm,Calm,-,N/A,,Clear,0,2013-12-12 00:52:00
7:52 PM,-0.0,-9.0,66,30.59,10.0,WSW,3.5,-,N/A,,Clear,250,2013-12-12 01:52:00
8:52 PM,-0.0,-8.0,69,30.59,10.0,West,3.5,-,N/A,,Clear,260,2013-12-12 02:52:00
9:52 PM,-0.9,-9.0,69,30.58,10.0,WSW,4.6,-,N/A,,Clear,250,2013-12-12 03:52:00
10:52 PM,-0.9,-9.9,66,30.60,10.0,West,5.8,-,N/A,,Clear,260,2013-12-12 04:52:00
11:52 PM,-0.9,-9.9,66,30.60,10.0,Variable,4.6,-,N/A,,Clear,0,2013-12-12 05:52:00